Tracking 30995 objects as of 5-Jul-2025
HD Live streaming from Space Station
objects crossing your sky now

STARLINK-4439

Track STARLINK-4439 now!
10-day predictions
STARLINK-4439 is classified as:


NORAD ID: 53498
Int'l Code: 2022-099AK
Perigee: 567.9 km
Apogee: 572.3 km
Inclination: 97.7 °
Period: 95.9 minutes
Semi major axis: 6941 km
RCS: Unknown
Launch date: August 12, 2022
Source: United States (US)
Launch site: AIR FORCE WESTERN TEST RANGE (AFWTR)
Your satellite tracking list
Your tracking list is empty




NASA's NSSDC Master Catalog

Two Line Element Set (TLE):
1 53498U 22099AK  25186.33097645  .00001114  00000-0  91300-4 0  9994
2 53498  97.6547 307.7043 0003158  78.0071 282.1507 15.01263844158871
Source of the keplerian elements: AFSPC